Dewpoint
52 53 56 56 54 55 60 61 63 64 67 66 67 67 67 68 69 72 71 71 71 71 73 73 72 71 71 71 71 69 70 66 68
52 52 55 56 55 56 60 62 63 64 66 67 68 68 68 69 69 70 72 73 73 73 68 71 73 72 72 70 70 68 68 66 66
53 53 53 55 55 54 59 62 63 65 66 66 69 70 71 70 71 71 70 73 73 72 70 70 73 73 70 70 68 69 66 63 63
53 53 53 54 55 56 57 61 62 65 66 67 68 69 71 73 73 73 73 71 72 73 73 73 73 71 70 69 69 69 67 62 61
53 54 54 54 55 55 55 59 60 64 67 67 69 71 70 71 73 74 73 73 75 74 73 73 71 69 70 70 69 68 65 63 61
50 53 55 54 54 55 57 57 58 61 67 67 69 70 71 71 72 73 74 73 73 75 73 71 67 65 69 71 70 67 64 64 61
54 54 55 55 54 55 56 56 58 59 66 68 69 70 70 71 72 73 74 75 73 75 73 68 66 64 64 70 70 70 67 65 62
56 55 56 55 57 57 59 56 56 58 64 67 68 69 70 71 72 73 73 74 74 75 73 69 65 64 64 66 69 70 67 64 60
59 60 61 61 61 58 60 60 62 58 60 65 67 68 68 71 72 73 73 74 75 75 72 71 67 66 65 64 69 68 67 62 60
58 59 61 64 64 64 62 64 66 66 63 63 66 68 68 71 72 73 73 74 74 73 68 69 67 66 67 66 68 66 65 65 59
58 61 64 66 67 68 68 67 68 68 71 68 68 69 70 71 73 73 73 73 73 72 68 65 65 65 67 69 68 65 64 64 58
58 61 65 67 68 69 71 71 71 69 70 72 71 71 73 73 73 71 70 70 70 70 66 65 66 67 67 66 66 63 63 62 59
59 59 65 69 71 73 74 74 73 73 73 73 73 74 73 71 71 70 69 69 67 67 66 66 67 67 66 64 65 62 62 61 59
59 60 60 71 72 73 74 74 73 73 73 73 73 71 70 69 70 69 68 66 66 65 64 65 67 66 65 63 64 61 59 59 59
55 56 60 62 72 73 74 73 73 72 72 72 71 70 69 69 69 69 69 67 66 66 66 66 65 64 62 61 61 59 57 57 56
59 53 57 61 70 71 72 72 71 72 72 71 71 70 68 69 70 70 69 68 68 67 67 65 63 61 61 58 58 57 55 56 55
62 61 61 66 71 70 70 70 70 72 73 73 71 68 68 68 69 68 68 68 68 67 65 64 62 60 57 55 55 55 52 50 52
56 56 62 70 71 70 69 69 69 69 72 72 69 69 69 68 68 67 65 61 61 64 64 62 61 58 57 55 53 52 50 47 46
53 60 66 69 70 69 68 68 69 70 70 70 69 68 67 66 65 66 63 60 57 51 53 55 54 52 54 53 49 47 46 44 44
54 61 65 67 70 69 69 68 68 70 71 70 69 67 67 66 65 65 62 61 61 60 53 49 50 49 48 47 45 45 44 43 43
Lifted_Index
-2 -2 -2 -1 -1 -1 -2 -2 -2 -3 -3 -3 -3 -3 -3 -3 -3 -4 -5 -5 -5 -5 -5 -5 -5 -5 -5 -4 -4 -4 -3 -2 -2
-2 -2 -2 -2 -1 -1 -2 -2 -3 -3 -3 -3 -4 -4 -4 -3 -3 -4 -5 -5 -6 -5 -5 -5 -5 -5 -5 -4 -4 -3 -3 -3 -2
-2 -2 -2 -2 -2 -2 -2 -2 -3 -3 -4 -4 -4 -5 -5 -4 -4 -4 -5 -5 -6 -6 -6 -5 -5 -6 -5 -5 -4 -3 -3 -3 -2
-2 -2 -2 -2 -2 -2 -2 -2 -3 -3 -4 -4 -4 -5 -5 -6 -6 -5 -5 -5 -6 -6 -6 -6 -6 -6 -5 -4 -4 -4 -4 -3 -3
-3 -3 -2 -2 -2 -2 -2 -2 -3 -3 -4 -4 -4 -5 -5 -6 -6 -6 -6 -6 -6 -7 -7 -7 -6 -5 -4 -4 -4 -4 -4 -3 -3
-3 -3 -3 -3 -3 -3 -2 -2 -2 -3 -3 -4 -4 -4 -5 -5 -6 -6 -7 -7 -7 -7 -7 -7 -5 -4 -3 -3 -4 -4 -3 -2 -2
-3 -3 -3 -3 -3 -3 -3 -3 -3 -3 -3 -3 -4 -4 -5 -5 -6 -6 -7 -7 -7 -8 -8 -7 -5 -3 -3 -3 -3 -3 -3 -2 -1
-4 -4 -4 -4 -4 -3 -3 -3 -3 -3 -3 -3 -4 -4 -5 -5 -6 -7 -7 -8 -8 -9 -8 -7 -6 -4 -3 -2 -3 -3 -3 -2 -1
-5 -5 -6 -6 -5 -4 -4 -4 -3 -3 -3 -3 -4 -5 -5 -6 -6 -7 -8 -8 -9 -9 -9 -8 -7 -5 -4 -2 -2 -3 -3 -2 -1
-6 -7 -7 -7 -7 -6 -5 -5 -5 -4 -4 -4 -4 -5 -5 -6 -7 -8 -8 -9 -9 -9 -9 -9 -7 -5 -4 -3 -3 -3 -3 -2 -1
-6 -7 -8 -8 -8 -8 -7 -7 -7 -7 -6 -5 -5 -5 -6 -7 -7 -8 -9 -9 -9 -9 -9 -9 -7 -6 -5 -4 -3 -3 -3 -2 -2
-6 -7 -8 -9 -9 -9 -9 -9 -8 -8 -8 -7 -7 -7 -7 -7 -8 -8 -9 -9 -9 -9 -9 -9 -8 -6 -5 -4 -3 -3 -3 -2 -2
-5 -6 -8 -9 -10 -10 -10 -9 -9 -9 -9 -9 -9 -8 -9 -9 -9 -9 -9 -9 -9 -9 -9 -8 -7 -5 -4 -3 -3 -3 -2 -2 -1
-4 -5 -7 -9 -10 -10 -10 -10 -10 -9 -9 -9 -9 -9 -10 -10 -9 -9 -9 -9 -9 -9 -8 -7 -6 -4 -3 -2 -2 -2 -2 -1 -1
-2 -3 -5 -7 -9 -10 -10 -10 -10 -9 -9 -9 -9 -9 -9 -9 -9 -9 -9 -9 -9 -8 -8 -7 -5 -3 -2 -2 -2 -1 -1 -0 -0
-0 -1 -3 -6 -8 -9 -9 -9 -9 -8 -8 -9 -9 -9 -9 -9 -9 -9 -9 -8 -8 -7 -7 -6 -4 -3 -2 -1 -1 -1 -1 0 1
-1 -1 -3 -6 -8 -8 -8 -8 -7 -7 -8 -8 -8 -8 -8 -8 -8 -8 -7 -7 -6 -6 -5 -4 -3 -2 -2 -1 -1 -1 -0 1 2
-1 -2 -5 -7 -8 -8 -7 -7 -7 -7 -7 -7 -7 -7 -7 -7 -7 -6 -5 -5 -5 -4 -3 -3 -2 -2 -2 -1 -1 -1 0 2 4
-2 -3 -6 -8 -8 -8 -7 -6 -6 -6 -7 -7 -6 -6 -6 -6 -5 -5 -4 -4 -3 -3 -2 -2 -2 -2 -2 -2 -1 -1 1 4 5
-2 -4 -6 -8 -8 -8 -7 -6 -6 -6 -7 -7 -6 -6 -5 -5 -5 -5 -4 -3 -3 -2 -2 -2 -2 -2 -2 -2 -2 -1 2 5 5